Poza Rica, Mexico

8:05 AM CDT on June 28, 2017 (GMT -0500)
Tajin

Weather History for MMPA - January, 2013

Change the Weather History Date:

Wednesday, January 30, 2013

  Actual Average Record
Temperature  
Mean Temperature 72 °F -  
Max Temperature 78 °F 72 °F 86 °F (2011)
Min Temperature 66 °F 60 °F 48 °F (2014)
Cooling Degree Days 7    
Growing Degree Days 22 (Base 50)    
Moisture  
Dew Point 60 °F    
Average Humidity 73    
Maximum Humidity 100    
Minimum Humidity 47    
Precipitation  
Precipitation 0.00 in - - ()
Sea Level Pressure  
Sea Level Pressure 30.00 in    
Wind  
Wind Speed 6 mph ()    
Max Wind Speed 17 mph    
Max Gust Speed 29 mph    
Visibility 3.3 miles    
Events Fog    
Averages and records for this station are not official NWS values.
T = Trace of Precipitation, MM = Missing Value Source: Averaged Metar Reports

Daily Weather History Graph

Daily Weather History Graph

Search for Another Location

Airport or City:

Trip Planner

Search our weather history database for the weather conditions in past years. The results will help you decide how hot, cold, wet, or windy it might be!

Date:

Astronomy

Jan. 30, 2013 Rise Set
Actual Time 7:06 AM CST 6:19 PM CST
Civil Twilight 6:43 AM CST 6:43 PM CST
Nautical Twilight 6:16 AM CST 7:09 PM CST
Astronomical Twilight 5:50 AM CST 7:36 PM CST
Moon 9:40 PM CST (1/30) 9:10 AM CST (1/30)
Length of Visible Light 11h 59m
Length of Day
11h 13m
Waning Gibbous, 87% of the Moon is Illuminated
Jan 30
Waning Gibbous
Feb 3
Last Quarter
Feb 10
New
Feb 17
First Quarter
Feb 25
Full

Hourly Weather History & Observations

Time (CST) Temp. Dew Point Humidity Pressure Visibility Wind Dir Wind Speed Gust Speed Precip Events Conditions
6:05 AM 68.0 °F 68.0 °F 100% 29.80 in 0.5 mi Calm Calm - N/A Fog Fog
6:40 AM 68.0 °F 68.0 °F 100% 29.81 in 0.5 mi Calm Calm - N/A Fog Fog
7:40 AM 66.2 °F 66.2 °F 100% 29.86 in 0.2 mi WNW 6.9 mph - N/A Fog Fog
8:46 AM 68.0 °F 68.0 °F 100% 29.88 in 0.2 mi Calm Calm - N/A Fog Fog
8:56 AM 68.0 °F 66.2 °F 94% 29.90 in 1.0 mi Calm Calm - N/A   Clear
9:15 AM 68.0 °F 66.2 °F 94% 29.92 in 0.5 mi Calm Calm - N/A Fog Fog
9:24 AM 69.8 °F 66.2 °F 88% 29.93 in 1.5 mi Calm Calm - N/A   Clear
9:40 AM 71.6 °F 64.4 °F 78% 29.95 in 5.0 mi Calm Calm - N/A   Clear
10:07 AM 69.8 °F 64.4 °F 83% 30.00 in 5.0 mi NNE 11.5 mph - N/A   Mostly Cloudy
10:11 AM 68.0 °F 64.4 °F 88% 29.99 in 5.0 mi North 11.5 mph 23.0 mph N/A   Overcast
10:49 AM 75.2 °F 64.4 °F 69% 30.00 in 5.0 mi North 17.3 mph 28.8 mph N/A   Mostly Cloudy
11:40 AM 77.0 °F 57.2 °F 50% 30.06 in 6.0 mi North 17.3 mph 28.8 mph N/A   Clear
12:40 PM 78.8 °F 59.0 °F 51% 30.06 in 5.0 mi NNE 11.5 mph - N/A   Clear
1:40 PM 78.8 °F 59.0 °F 51% 30.06 in 5.0 mi NNE 11.5 mph - N/A   Mostly Cloudy
2:40 PM 73.4 °F 57.2 °F 57% 30.09 in - North 17.3 mph 23.0 mph N/A   Mostly Cloudy
3:40 PM 73.4 °F 51.8 °F 47% 30.07 in 5.0 mi NNE 17.3 mph 23.0 mph N/A   Scattered Clouds
4:40 PM 71.6 °F 51.8 °F 50% 30.08 in 5.0 mi ENE 16.1 mph - N/A   Scattered Clouds
5:40 PM 68.0 °F 50.0 °F 52% 30.10 in 4.0 mi NNE 17.3 mph - N/A   Overcast
6:40 PM 66.2 °F 53.6 °F 64% 30.10 in 4.0 mi ENE 17.3 mph - N/A   Overcast
7:40 PM 66.2 °F 51.8 °F 60% 30.07 in 4.0 mi NNE 9.2 mph - N/A   Overcast
8:40 PM 66.2 °F 51.8 °F 60% 30.27 in 4.0 mi NNW 9.2 mph - N/A   Overcast